• In United Kingdom
  • List of Countries
  • For 7 days
  • Water Temperature
  • Satellite Maps
  • Weather Map
  • Weather Widgets
  • user-avatar
    Login

    Hourly Weather Artashat

    Today, 17 July, Tuesday

    Time Temperature Precipitation Wind Pressure Humidity
    00:00 +17°C° 0 mm 2 mps 600 mmHg 54%
    01:00 +16°C° 0 mm 2 mps 600 mmHg 56%
    02:00 +15°C° 0 mm 2 mps 599 mmHg 59%
    03:00 +14°C° 0 mm 1 mps 599 mmHg 63%
    04:00 +15°C° 0 mm 1 mps 599 mmHg 62%
    05:00 +15°C° 0 mm 1 mps 599 mmHg 60%
    06:00 +16°C° 0 mm 1 mps 600 mmHg 59%
    07:00 +17°C° 0 mm 2 mps 600 mmHg 54%
    08:00 +18°C° 0 mm 2 mps 601 mmHg 49%
    09:00 +20°C° 0 mm 2 mps 601 mmHg 44%
    10:00 +21°C° 0.2 mm 2 mps 601 mmHg 42%
    11:00 +23°C° 0.2 mm 2 mps 601 mmHg 39%
    12:00 +24°C° 0.2 mm 2 mps 601 mmHg 37%
    13:00 +24°C° 0.2 mm 2 mps 601 mmHg 35%
    14:00 +25°C° 0.2 mm 2 mps 602 mmHg 34%
    15:00 +25°C° 0.2 mm 2 mps 602 mmHg 33%
    16:00 +25°C° 0 mm 2 mps 602 mmHg 34%
    17:00 +24°C° 0 mm 2 mps 602 mmHg 34%
    18:00 +24°C° 0 mm 3 mps 602 mmHg 35%
    19:00 +21°C° 0 mm 2 mps 602 mmHg 40%
    20:00 +20°C° 0 mm 2 mps 601 mmHg 45%
    21:00 +18°C° 0 mm 2 mps 601 mmHg 50%
    22:00 +17°C° 0 mm 2 mps 601 mmHg 53%
    23:00 +16°C° 0 mm 1 mps 601 mmHg 55%

    Tomorrow, 18 July, Wednesday

    Time Temperature Precipitation Wind Pressure Humidity
    00:00 +16°C° 0 mm 1 mps 601 mmHg 58%
    01:00 +15°C° 0 mm 1 mps 600 mmHg 59%
    02:00 +15°C° 0 mm 1 mps 600 mmHg 61%
    03:00 +14°C° 0 mm 1 mps 600 mmHg 62%
    04:00 +15°C° 0 mm 1 mps 600 mmHg 61%
    05:00 +15°C° 0 mm 1 mps 600 mmHg 59%
    06:00 +16°C° 0 mm 1 mps 600 mmHg 57%
    07:00 +18°C° 0 mm 1 mps 601 mmHg 50%
    08:00 +19°C° 0 mm 2 mps 601 mmHg 44%
    09:00 +21°C° 0 mm 2 mps 601 mmHg 37%
    10:00 +23°C° 0 mm 2 mps 602 mmHg 33%
    11:00 +25°C° 0 mm 2 mps 602 mmHg 30%
    12:00 +27°C° 0 mm 2 mps 602 mmHg 26%
    13:00 +27°C° 0 mm 2 mps 602 mmHg 24%
    14:00 +28°C° 0 mm 3 mps 602 mmHg 23%
    15:00 +29°C° 0 mm 3 mps 602 mmHg 21%
    16:00 +29°C° 0 mm 3 mps 602 mmHg 23%
    17:00 +28°C° 0 mm 3 mps 602 mmHg 24%
    18:00 +28°C° 0 mm 2 mps 602 mmHg 26%
    19:00 +26°C° 0 mm 2 mps 601 mmHg 31%
    20:00 +24°C° 0 mm 2 mps 601 mmHg 36%
    21:00 +21°C° 0 mm 2 mps 600 mmHg 41%
    22:00 +21°C° 0 mm 1 mps 600 mmHg 43%
    23:00 +20°C° 0 mm 1 mps 600 mmHg 46%

    Day after tomorrow, 19 July, Thursday

    Time Temperature Precipitation Wind Pressure Humidity
    00:00 +20°C° 0 mm 1 mps 600 mmHg 48%
    01:00 +19°C° 0 mm 1 mps 600 mmHg 49%
    02:00 +19°C° 0 mm 1 mps 599 mmHg 49%
    03:00 +18°C° 0 mm 1 mps 599 mmHg 50%
    04:00 +18°C° 0 mm 1 mps 600 mmHg 50%
    05:00 +19°C° 0 mm 1 mps 600 mmHg 49%
    06:00 +19°C° 0 mm 1 mps 600 mmHg 49%
    07:00 +21°C° 0 mm 1 mps 601 mmHg 43%
    08:00 +23°C° 0 mm 1 mps 602 mmHg 36%
    09:00 +25°C° 0 mm 1 mps 602 mmHg 30%
    10:00 +27°C° 0 mm 2 mps 603 mmHg 26%
    11:00 +28°C° 0 mm 2 mps 603 mmHg 23%
    12:00 +29°C° 0 mm 2 mps 603 mmHg 19%
    13:00 +30°C° 0 mm 2 mps 603 mmHg 17%
    14:00 +31°C° 0 mm 3 mps 603 mmHg 15%
    15:00 +33°C° 0 mm 3 mps 603 mmHg 13%
    16:00 +31°C° 0 mm 3 mps 603 mmHg 14%
    17:00 +30°C° 0 mm 3 mps 603 mmHg 15%
    18:00 +30°C° 0 mm 2 mps 602 mmHg 16%
    19:00 +27°C° 0 mm 2 mps 602 mmHg 20%
    20:00 +25°C° 0 mm 2 mps 601 mmHg 25%
    21:00 +23°C° 0 mm 2 mps 601 mmHg 29%
    22:00 +21°C° 0 mm 2 mps 601 mmHg 30%
    23:00 +20°C° 0 mm 2 mps 601 mmHg 31%

    20 July, Friday

    Time Temperature Precipitation Wind Pressure Humidity
    00:00 +20°C° 0 mm 2 mps 600 mmHg 32%
    01:00 +19°C° 0 mm 2 mps 600 mmHg 34%
    02:00 +18°C° 0 mm 2 mps 600 mmHg 36%
    03:00 +18°C° 0 mm 1 mps 599 mmHg 38%
    04:00 +19°C° 0 mm 1 mps 600 mmHg 40%
    05:00 +19°C° 0 mm 1 mps 600 mmHg 41%
    06:00 +20°C° 0 mm 1 mps 600 mmHg 42%
    07:00 +22°C° 0 mm 1 mps 601 mmHg 36%
    08:00 +24°C° 0 mm 1 mps 601 mmHg 29%
    09:00 +26°C° 0 mm 2 mps 602 mmHg 23%
    10:00 +27°C° 0 mm 2 mps 602 mmHg 20%
    11:00 +29°C° 0 mm 2 mps 602 mmHg 17%
    12:00 +30°C° 0 mm 2 mps 603 mmHg 14%
    13:00 +31°C° 0 mm 3 mps 603 mmHg 13%
    14:00 +33°C° 0 mm 3 mps 602 mmHg 11%
    15:00 +33°C° 0 mm 3 mps 602 mmHg 10%
    16:00 +33°C° 0 mm 3 mps 602 mmHg 11%
    17:00 +31°C° 0 mm 3 mps 602 mmHg 13%
    18:00 +30°C° 0 mm 3 mps 601 mmHg 14%
    19:00 +28°C° 0 mm 3 mps 601 mmHg 18%
    20:00 +25°C° 0 mm 3 mps 601 mmHg 22%
    21:00 +23°C° 0 mm 2 mps 600 mmHg 26%
    22:00 +21°C° 0 mm 2 mps 600 mmHg 27%
    23:00 +20°C° 0 mm 2 mps 600 mmHg 28%

    21 July, Saturday

    Time Temperature Precipitation Wind Pressure Humidity
    00:00 +20°C° 0 mm 2 mps 600 mmHg 30%
    01:00 +19°C° 0 mm 2 mps 599 mmHg 32%
    02:00 +18°C° 0 mm 2 mps 599 mmHg 34%
    03:00 +18°C° 0 mm 2 mps 599 mmHg 36%
    04:00 +18°C° 0 mm 2 mps 599 mmHg 38%
    05:00 +18°C° 0 mm 2 mps 599 mmHg 40%
    06:00 +18°C° 0 mm 2 mps 600 mmHg 42%
    07:00 +20°C° 0 mm 2 mps 600 mmHg 38%
    08:00 +23°C° 0 mm 2 mps 601 mmHg 33%
    09:00 +25°C° 0 mm 2 mps 601 mmHg 29%
    10:00 +26°C° 0 mm 2 mps 602 mmHg 26%
    11:00 +28°C° 0 mm 2 mps 602 mmHg 23%
    12:00 +29°C° 0 mm 2 mps 602 mmHg 20%
    13:00 +30°C° 0 mm 2 mps 602 mmHg 19%
    14:00 +30°C° 0 mm 3 mps 602 mmHg 18%
    15:00 +31°C° 0 mm 3 mps 602 mmHg 16%
    16:00 +30°C° 0 mm 3 mps 601 mmHg 18%
    17:00 +30°C° 0 mm 3 mps 601 mmHg 19%
    18:00 +29°C° 0 mm 4 mps 601 mmHg 20%
    19:00 +27°C° 0 mm 3 mps 601 mmHg 25%
    20:00 +25°C° 0 mm 3 mps 600 mmHg 30%
    21:00 +22°C° 0 mm 3 mps 600 mmHg 35%
    22:00 +21°C° 0 mm 3 mps 600 mmHg 39%
    23:00 +20°C° 0 mm 2 mps 599 mmHg 42%

    22 July, Sunday

    Time Temperature Precipitation Wind Pressure Humidity
    00:00 +19°C° 0 mm 2 mps 599 mmHg 46%
    01:00 +19°C° 0 mm 2 mps 599 mmHg 49%
    02:00 +18°C° 0 mm 2 mps 599 mmHg 53%
    03:00 +18°C° 0 mm 2 mps 599 mmHg 56%
    04:00 +18°C° 0 mm 2 mps 599 mmHg 56%
    05:00 +18°C° 0 mm 2 mps 599 mmHg 56%
    06:00 +18°C° 0 mm 2 mps 599 mmHg 56%
    07:00 +20°C° 0 mm 2 mps 600 mmHg 50%
    08:00 +23°C° 0 mm 2 mps 600 mmHg 44%
    09:00 +24°C° 0 mm 3 mps 601 mmHg 39%
    10:00 +26°C° 0 mm 3 mps 601 mmHg 35%
    11:00 +27°C° 0 mm 3 mps 601 mmHg 31%
    12:00 +28°C° 0 mm 3 mps 601 mmHg 27%
    13:00 +29°C° 0 mm 3 mps 601 mmHg 26%
    14:00 +29°C° 0 mm 3 mps 601 mmHg 24%
    15:00 +30°C° 0 mm 3 mps 601 mmHg 23%
    16:00 +29°C° 0 mm 3 mps 600 mmHg 23%
    17:00 +29°C° 0 mm 3 mps 600 mmHg 23%
    18:00 +29°C° 0 mm 3 mps 600 mmHg 24%
    19:00 +27°C° 0 mm 3 mps 600 mmHg 29%
    20:00 +25°C° 0 mm 3 mps 599 mmHg 34%
    21:00 +21°C° 0 mm 3 mps 599 mmHg 39%
    22:00 +21°C° 0 mm 3 mps 599 mmHg 42%
    23:00 +20°C° 0 mm 2 mps 599 mmHg 45%
    Show more